Location: Bun Machan
(52.1403°N, 7.3744°W)
Time: 08:32:11
(UTC+00:00)

Cosmos 1656 Rocket - Pass Details

Date: 14 July 2020
Orbit: 797 x 845 km, 71.1° (Epoch: 04 August)

Event Time Altitude Azimuth Distance (km) Brightness Sun altitude
Rises 00:28:10 0° 325° (NW) 3,313 7.8 -16.2°
Reaches altitude 10° 00:30:42 10° 318° (NW) 2,380 6.8 -16.2°
Maximum altitude 00:35:41 39° 251° (WSW) 1,190 4.3 -16.2°
Enters shadow 00:38:15 24° 201° (SSW) 1,593 4.6 -16.2°
